Temperature
19 19 19 19 19 19 18 17 16 16 16 15 16 15 15 15 15 15 14 14 14 14 14 14 14 14 13 13 13 13 13 13 13 13 13 14 14 14 15 15 15 15 16 16
20 20 20 19 19 19 18 18 17 17 16 17 16 16 16 16 15 15 15 15 14 14 14 14 14 14 14 13 13 13 13 13 13 13 13 13 13 14 14 14 15 15 15 15
21 20 20 20 19 19 18 18 18 17 17 17 17 16 16 16 16 15 15 15 14 14 15 15 15 15 14 14 13 13 12 12 12 13 13 13 13 13 13 14 14 14 15 15
21 21 19 19 20 19 19 19 19 18 18 17 17 17 16 16 15 15 15 14 14 14 15 15 15 15 14 14 13 13 12 12 12 12 12 12 13 13 13 13 13 13 14 14
22 21 20 19 19 19 18 19 19 18 18 17 17 17 16 16 15 15 14 14 14 14 15 15 15 15 14 14 13 12 12 12 12 12 12 12 12 12 12 12 12 13 13 13
21 20 20 19 20 19 19 18 19 18 18 18 18 16 16 16 15 15 14 14 14 14 15 15 15 15 14 14 13 12 12 12 12 11 12 12 12 12 12 12 12 12 12 12
20 20 21 19 18 18 18 17 18 18 17 17 16 16 16 16 15 15 14 14 14 14 14 14 14 14 14 13 13 12 12 12 12 11 11 11 11 11 11 11 11 12 12 12
21 21 20 19 18 19 18 18 17 17 16 16 16 16 15 15 15 15 14 14 14 14 14 14 14 14 14 13 13 13 12 12 12 11 11 11 11 11 11 11 11 11 11 11
21 20 19 19 19 18 18 17 17 16 16 15 15 15 15 15 15 15 14 14 14 14 14 15 14 14 14 13 13 13 13 12 12 12 11 11 11 11 11 11 11 11 10 11
20 20 19 18 18 17 17 17 16 15 15 15 15 15 15 15 15 14 14 14 14 14 14 14 14 14 14 14 14 14 13 13 12 12 11 11 11 11 11 11 11 11 10 11
21 20 19 18 17 17 16 16 16 15 15 15 15 15 14 15 14 14 14 14 14 14 14 14 14 14 14 14 14 14 13 13 12 12 12 11 11 11 11 11 11 11 11 11
21 20 19 18 17 17 16 15 15 15 15 15 14 14 14 14 14 14 14 14 14 14 14 14 14 14 14 14 14 14 13 13 12 12 12 11 11 11 10 10 10 10 10 11
20 19 19 17 17 16 16 15 15 15 15 14 14 14 14 14 14 14 14 14 14 14 14 14 14 14 14 14 14 13 13 13 12 12 12 11 11 11 10 10 10 10 10 10
18 18 18 17 17 16 16 15 15 15 14 14 14 14 14 14 14 14 14 14 14 14 14 14 14 14 14 14 14 13 13 13 12 12 12 11 11 11 10 10 10 10 10 10
17 18 18 17 16 16 16 15 15 15 15 14 14 14 14 13 14 13 13 13 14 14 14 14 14 14 14 14 13 13 13 12 12 12 12 11 11 11 11 10 10 10 10 10
17 17 17 17 16 16 15 15 15 15 15 14 14 14 13 13 13 13 13 13 13 13 13 14 14 14 14 14 13 13 13 13 12 12 12 12 11 11 11 10 10 10 10 10
17 17 17 16 16 16 16 15 15 15 15 14 14 13 13 13 13 13 13 13 13 13 13 13 14 14 14 13 13 13 13 13 12 12 12 12 11 11 11 11 10 10 10 10
17 17 17 16 16 16 16 15 15 15 14 14 13 13 13 13 13 13 13 13 13 13 13 13 13 14 14 13 13 13 13 13 13 12 12 12 11 11 11 11 10 10 10 9
17 17 17 17 16 16 16 15 15 14 14 14 13 13 13 13 13 13 13 13 13 13 13 13 13 13 13 13 14 13 13 13 13 12 12 12 11 11 11 11 10 10 10 9
17 17 17 16 16 16 16 15 15 14 14 14 13 13 13 13 13 13 13 12 12 12 13 13 13 13 13 13 14 13 13 13 13 13 12 12 12 11 11 11 11 10 10 10
16 16 16 16 16 16 15 15 15 14 14 13 13 13 13 13 13 13 12 12 12 12 13 13 13 13 13 13 13 13 13 13 13 13 12 12 12 12 11 11 11 11 10 10
16 16 16 16 15 15 15 15 14 14 14 13 13 13 13 13 13 12 12 12 12 12 13 13 13 13 13 14 14 14 13 13 13 13 12 12 12 12 12 11 11 11 10 10
16 16 15 15 15 15 14 14 14 14 14 13 13 13 13 13 12 12 12 12 12 12 13 13 13 13 14 14 14 14 13 13 13 13 12 12 12 12 12 11 11 11 11 10
15 15 15 15 15 15 15 14 14 14 14 13 13 13 13 12 12 12 12 12 12 12 13 13 13 13 14 14 14 13 13 13 13 13 12 12 12 12 12 11 11 11 11 10
14 15 15 15 15 15 15 15 14 14 13 13 13 13 13 13 12 12 12 12 12 12 13 13 13 13 13 13 13 13 13 13 13 13 13 12 12 12 12 11 11 11 11 10
13 14 14 14 14 14 14 14 14 14 13 13 13 13 13 13 12 12 12 12 12 12 12 12 12 12 13 13 13 13 13 13 13 13 13 13 12 12 12 11 11 11 11 11
12 13 13 13 13 14 14 14 14 14 13 13 13 13 13 12 12 12 12 12 12 12 12 12 12 12 12 12 13 13 13 13 13 13 13 13 13 12 12 12 11 11 11 11
Wind_Speed
5 3 3 4 6 7 7 5 4 3 3 4 4 4 6 6 6 7 8 8 8 7 6 5 5 6 6 6 7 8 9 9 9 7 6 6 6 6 6 7 6 5 3 2
2 3 1 2 2 2 3 3 3 2 3 3 2 3 5 7 8 8 8 9 8 8 7 6 5 5 5 7 7 8 8 9 9 9 9 8 7 7 7 7 7 7 6 4
1 5 3 2 1 1 1 1 1 2 3 3 4 5 7 8 9 9 9 9 9 9 8 8 7 6 5 6 7 8 8 8 8 9 9 9 9 8 8 8 8 8 7 7
4 3 2 4 4 2 1 1 1 1 2 2 3 2 4 7 8 9 10 9 9 9 8 8 8 7 6 6 8 8 8 8 8 9 9 9 9 9 8 7 6 6 6 6
4 5 2 5 4 3 2 2 2 1 1 2 3 2 6 8 8 8 8 7 7 8 7 7 8 7 7 7 8 8 8 8 8 8 8 9 9 9 7 6 6 5 5 6
4 5 2 6 7 3 2 1 5 3 2 3 5 3 5 8 8 8 7 6 7 7 7 7 7 7 7 7 7 7 7 7 7 6 7 8 8 8 7 6 6 5 5 6
5 4 3 8 7 3 1 4 5 4 3 5 7 6 5 7 7 6 6 6 7 7 6 6 7 6 7 7 7 6 6 6 6 6 6 6 6 6 6 6 6 6 6 6
3 3 3 9 5 1 5 7 5 4 5 5 5 5 6 6 5 6 6 6 7 7 6 5 6 6 5 5 5 4 4 4 5 6 7 7 6 6 7 7 7 7 6 6
4 3 7 5 3 5 5 5 5 4 5 3 3 4 5 5 6 6 6 6 6 7 7 5 5 5 5 4 3 2 3 3 4 5 6 7 7 7 7 7 6 6 5 5
2 3 7 5 4 5 3 4 5 4 3 2 3 4 5 6 6 6 6 6 6 7 7 6 5 4 4 4 4 2 2 3 4 5 6 7 6 6 6 7 7 6 6 6
4 3 6 6 5 6 6 4 4 4 2 2 3 4 5 5 6 6 5 5 5 6 7 6 5 4 4 4 6 4 4 4 5 5 5 5 6 6 6 6 5 5 5 5
1 4 2 5 8 8 7 6 4 3 2 2 1 3 4 5 5 5 5 5 6 7 7 7 6 5 4 3 5 5 5 5 4 3 3 4 4 4 7 6 7 9 9 7
4 5 4 6 8 9 8 7 5 3 2 1 1 2 4 4 4 5 6 6 7 7 7 6 6 6 5 4 4 5 5 4 4 3 3 2 3 3 2 2 5 8 9 10
6 5 5 6 7 8 8 7 6 4 3 2 1 2 3 4 5 6 6 6 7 7 6 6 6 6 6 5 4 4 4 3 2 2 3 3 3 3 2 2 2 2 4 7
6 5 5 7 8 7 7 7 6 4 3 2 2 1 2 4 5 5 5 6 6 7 6 6 6 6 6 6 5 4 4 3 3 3 2 2 2 2 3 3 3 3 2 2
8 7 7 8 9 8 8 7 6 5 4 2 1 1 2 3 4 5 4 5 6 6 6 6 5 6 6 5 4 2 3 3 3 2 1 2 2 2 3 3 4 4 4 4
10 10 9 9 9 9 8 7 6 5 4 4 2 0 2 4 4 4 4 5 5 5 4 4 6 6 6 5 4 1 2 3 1 3 1 2 3 3 3 3 4 5 4 4
10 10 10 10 9 9 8 7 6 4 3 3 2 1 4 4 4 4 5 5 6 5 4 6 6 7 6 3 4 4 1 3 3 2 2 3 2 2 3 3 4 5 3 2
9 10 10 9 9 9 8 7 6 6 5 4 3 4 3 3 3 4 4 5 5 5 5 7 9 8 4 3 3 4 4 1 2 3 4 3 2 1 2 3 4 4 3 3
8 9 9 9 8 7 7 7 6 6 5 4 4 4 4 4 3 2 3 4 2 3 5 7 8 7 3 3 2 4 5 2 1 3 3 3 3 2 3 2 3 3 4 4
8 8 9 8 7 7 6 7 6 6 5 5 4 4 4 3 3 3 2 3 2 4 5 8 6 3 4 3 3 5 5 4 1 2 3 3 3 3 3 3 3 3 3 4
7 7 8 8 8 7 7 7 7 7 6 5 5 5 4 4 4 3 3 2 1 4 3 5 3 4 5 5 4 5 4 4 2 2 2 2 3 3 3 4 3 3 3 4
6 7 8 9 9 9 9 8 8 7 7 6 6 5 5 3 1 2 4 1 2 3 3 4 3 5 7 6 5 5 5 5 4 3 3 3 3 3 3 4 3 3 4 4
4 5 7 8 9 9 9 9 7 6 7 6 6 6 5 3 4 4 3 2 3 1 4 5 6 8 7 5 5 5 5 4 3 3 2 2 3 3 3 4 4 4 4 6
3 3 5 5 6 6 6 7 7 7 7 5 6 7 6 4 4 3 2 3 2 4 5 6 8 8 6 5 5 4 4 4 4 3 3 3 3 3 2 3 4 4 4 5
4 3 2 3 3 3 4 4 5 5 6 6 5 5 5 4 5 5 4 5 7 6 5 5 5 5 4 4 4 4 3 3 4 4 4 4 5 5 4 4 5 5 5 5
6 4 2 3 3 3 4 4 4 5 5 6 6 5 5 5 5 5 5 4 4 4 4 4 4 4 3 4 4 5 4 4 4 5 5 5 5 4 5 6 5 4 4 4
Wind_Direction
80 81 32 24 21 25 38 42 52 68 57 34 7 2 5 11 12 18 20 16 13 9 7 12 16 8 8 10 17 24 26 19 12 13 14 8 1 355 354 356 351 350 17 47
200 168 266 327 15 30 42 47 75 85 73 43 13 13 13 20 20 22 20 17 12 9 1 5 18 7 21 22 25 33 32 23 12 17 20 16 13 11 3 0 3 6 14 28
301 146 251 277 139 155 71 51 9 29 60 14 9 18 19 18 17 21 18 17 10 2 1 2 13 18 40 42 34 34 34 31 22 20 17 15 16 14 7 8 13 14 20 29
286 250 292 99 105 116 275 257 188 48 62 14 348 20 45 34 21 21 16 12 3 351 356 4 11 17 33 49 45 37 27 27 27 27 21 18 18 13 8 10 13 16 18 24
313 325 121 138 152 169 250 282 154 149 59 8 309 146 66 43 33 26 16 7 351 339 351 8 5 11 27 37 45 37 28 25 26 28 24 20 17 10 8 9 11 15 25 30
309 313 358 112 120 126 239 223 106 102 60 5 358 68 42 28 32 26 17 4 349 344 358 3 359 11 31 35 39 37 30 29 27 31 35 25 16 9 7 9 9 19 34 35
281 288 84 114 121 158 269 94 88 82 62 36 40 42 25 23 29 27 21 12 358 348 352 351 356 13 34 32 36 36 33 34 29 26 39 42 22 10 12 13 16 25 29 37
292 295 104 135 151 182 84 102 97 84 67 55 39 33 24 15 30 33 21 17 360 340 339 346 2 9 40 35 25 34 37 42 45 47 35 32 29 20 19 16 21 26 23 25
355 53 112 152 122 84 86 105 103 89 77 59 27 27 21 8 27 32 19 14 355 336 335 355 19 11 28 30 8 20 39 56 53 64 61 39 29 27 24 21 23 23 23 21
283 164 154 166 151 127 121 106 100 93 83 48 21 16 13 5 23 22 14 9 353 344 347 357 8 13 40 13 342 356 38 62 72 62 62 55 39 32 35 24 17 15 17 16
253 153 136 172 182 165 148 141 133 124 112 56 16 14 7 1 16 6 1 5 356 349 343 346 360 14 51 17 339 355 35 50 76 85 85 80 70 43 39 50 33 13 5 13
322 117 161 159 169 170 162 166 162 160 148 116 42 15 359 357 360 352 355 9 3 353 344 348 360 9 47 27 343 10 39 35 42 78 89 104 114 94 55 55 48 45 39 39
77 110 92 118 153 164 165 164 164 170 140 81 27 19 354 344 344 352 2 13 360 344 339 350 357 6 24 20 5 15 54 38 37 42 61 76 106 125 126 86 56 47 43 45
111 132 138 147 152 162 164 163 174 182 168 169 17 352 341 334 342 360 3 2 346 334 344 355 360 15 12 3 6 21 70 66 33 53 50 58 57 70 94 112 111 91 55 45
168 184 159 147 149 162 160 166 182 191 185 176 149 288 326 340 349 349 343 348 341 339 353 354 5 21 7 354 358 18 42 48 34 41 56 68 63 67 73 83 94 105 109 59
180 186 168 163 166 173 175 182 192 193 180 172 196 278 334 338 323 308 333 352 341 339 342 348 11 17 357 345 354 53 78 51 10 349 49 82 72 75 72 70 72 71 60 35
183 187 186 185 182 185 187 191 196 192 179 179 190 280 315 304 307 329 350 342 327 321 335 6 25 4 334 325 325 303 142 131 245 291 17 72 70 74 87 89 85 80 70 34
194 193 191 190 187 189 190 190 189 183 183 167 148 236 271 292 320 335 332 329 328 333 11 31 23 334 311 331 339 329 257 177 196 170 107 81 66 93 103 109 115 117 129 101
191 190 193 195 189 187 186 184 180 181 184 173 195 234 259 284 294 304 319 331 332 344 8 12 346 314 303 60 5 311 299 220 148 124 117 127 225 166 124 122 128 132 132 122
192 191 193 193 187 185 181 174 171 176 181 182 204 233 250 259 268 303 325 318 320 30 360 348 323 311 338 71 359 304 301 292 165 151 155 176 202 172 151 149 144 145 140 131
196 195 194 193 186 182 181 176 172 178 187 191 210 240 259 280 298 296 294 298 9 56 347 317 304 336 8 12 306 288 290 289 245 173 174 187 190 178 169 168 161 158 151 141
201 197 196 193 185 185 187 190 183 187 196 196 200 223 247 263 276 288 286 251 123 87 336 311 341 17 350 327 281 270 272 278 270 210 186 195 191 185 185 177 171 166 152 143
205 199 198 198 195 195 194 198 196 191 194 201 209 220 231 230 245 280 282 300 74 70 318 301 330 315 313 299 271 257 249 252 252 232 204 204 207 198 188 179 176 168 157 153
236 210 203 202 202 202 200 198 197 191 190 197 212 221 227 220 224 236 248 194 171 195 280 280 277 284 289 275 264 248 239 240 232 228 225 215 219 208 189 177 178 176 168 163
282 247 220 210 211 210 209 200 193 193 195 200 212 219 221 206 202 226 279 299 261 241 267 280 270 269 270 270 271 257 234 227 219 213 217 217 221 220 212 189 182 179 174 172
310 296 278 249 232 209 208 206 201 192 191 200 212 218 216 199 190 195 216 249 261 254 255 264 267 261 267 286 299 294 272 222 197 204 221 225 216 202 211 217 203 186 180 177
305 291 265 258 256 233 222 217 212 206 201 202 207 210 210 205 198 201 213 230 249 253 256 264 275 276 278 280 283 286 283 264 221 201 210 216 216 206 201 205 200 188 174 171
Height
1548 1548 1548 1549 1550 1549 1550 1552 1557 1559 1559 1558 1556 1555 1553 1551 1548 1546 1543 1540 1537 1534 1531 1528 1525 1522 1519 1517 1514 1512 1509 1506 1505 1504 1503 1502 1501 1501 1501 1501 1501 1502 1503 1504
1545 1546 1546 1548 1548 1549 1551 1551 1553 1555 1557 1555 1555 1554 1553 1551 1549 1547 1545 1542 1540 1537 1534 1531 1529 1526 1523 1520 1518 1515 1512 1509 1507 1506 1504 1503 1503 1502 1501 1501 1501 1502 1503 1504
1541 1543 1545 1547 1546 1548 1549 1550 1552 1555 1556 1555 1554 1554 1553 1552 1550 1549 1547 1545 1542 1540 1537 1534 1532 1529 1526 1524 1521 1518 1515 1512 1510 1508 1506 1505 1504 1503 1502 1502 1502 1502 1503 1504
1540 1542 1553 1551 1544 1547 1549 1548 1549 1551 1553 1554 1554 1554 1554 1553 1552 1551 1549 1547 1544 1542 1539 1537 1534 1532 1529 1527 1524 1521 1518 1515 1513 1510 1508 1506 1505 1503 1503 1503 1503 1503 1503 1504
1540 1544 1545 1548 1545 1547 1549 1548 1547 1550 1552 1553 1552 1553 1555 1554 1553 1552 1550 1548 1546 1544 1541 1539 1537 1534 1532 1529 1526 1523 1521 1518 1515 1512 1510 1508 1506 1505 1505 1504 1504 1504 1504 1504
1544 1548 1549 1546 1544 1546 1550 1550 1548 1550 1552 1553 1552 1554 1557 1555 1554 1552 1551 1549 1546 1544 1543 1541 1538 1536 1534 1531 1529 1526 1524 1521 1518 1516 1513 1511 1509 1508 1507 1506 1505 1505 1505 1504
1545 1545 1539 1543 1545 1548 1554 1554 1551 1552 1553 1554 1555 1557 1558 1556 1554 1553 1551 1549 1547 1545 1543 1542 1540 1537 1535 1533 1531 1529 1526 1524 1521 1519 1516 1514 1512 1510 1509 1508 1507 1506 1506 1505
1540 1543 1548 1545 1547 1548 1550 1550 1552 1553 1555 1556 1557 1557 1557 1556 1555 1553 1551 1549 1547 1545 1544 1542 1540 1539 1536 1534 1533 1531 1528 1526 1524 1521 1519 1517 1515 1513 1511 1510 1509 1508 1507 1507
1540 1545 1543 1545 1546 1548 1549 1551 1553 1554 1555 1556 1557 1557 1557 1556 1555 1554 1552 1550 1548 1546 1544 1543 1541 1539 1537 1536 1534 1532 1530 1528 1526 1524 1522 1519 1517 1515 1513 1512 1511 1510 1509 1508
1539 1538 1541 1544 1546 1548 1550 1551 1553 1555 1556 1556 1557 1557 1557 1556 1555 1554 1552 1550 1548 1546 1545 1543 1541 1539 1538 1536 1534 1533 1531 1530 1528 1526 1524 1522 1520 1518 1516 1514 1513 1512 1511 1510
1537 1537 1541 1543 1545 1547 1550 1551 1553 1555 1556 1556 1557 1557 1556 1556 1555 1554 1553 1551 1549 1547 1545 1544 1542 1540 1538 1536 1535 1534 1533 1531 1530 1528 1526 1524 1522 1521 1519 1517 1516 1515 1513 1512
1536 1536 1538 1540 1543 1546 1548 1551 1553 1554 1555 1556 1556 1556 1556 1556 1555 1554 1553 1551 1549 1547 1545 1544 1542 1541 1539 1537 1536 1535 1533 1532 1531 1530 1528 1526 1525 1524 1522 1521 1519 1518 1516 1515
1534 1536 1538 1539 1542 1545 1547 1550 1552 1553 1554 1555 1555 1556 1555 1555 1555 1554 1553 1551 1549 1547 1546 1544 1543 1541 1539 1538 1536 1536 1534 1533 1532 1531 1530 1529 1527 1526 1525 1524 1523 1521 1519 1518
1534 1536 1538 1540 1542 1544 1547 1549 1551 1552 1553 1554 1554 1555 1555 1554 1554 1553 1552 1550 1549 1547 1546 1544 1543 1541 1539 1538 1537 1536 1535 1534 1533 1532 1532 1531 1529 1528 1527 1526 1525 1524 1523 1521
1533 1535 1537 1539 1541 1544 1546 1548 1550 1551 1552 1553 1553 1554 1554 1553 1553 1552 1551 1550 1548 1547 1546 1544 1543 1541 1539 1538 1537 1536 1535 1535 1534 1533 1533 1532 1531 1530 1529 1528 1528 1527 1526 1525
1532 1534 1536 1538 1540 1542 1545 1546 1548 1549 1551 1551 1552 1552 1552 1552 1552 1551 1550 1549 1548 1546 1545 1544 1542 1540 1539 1538 1537 1536 1536 1535 1534 1534 1534 1533 1533 1532 1531 1531 1530 1529 1528 1527
1529 1531 1534 1536 1538 1541 1543 1545 1546 1548 1549 1550 1550 1551 1551 1551 1551 1550 1549 1548 1547 1546 1544 1543 1541 1539 1538 1537 1537 1537 1536 1535 1535 1535 1535 1535 1534 1533 1533 1532 1532 1531 1530 1530
1526 1529 1531 1533 1536 1538 1540 1542 1544 1545 1547 1548 1548 1549 1549 1549 1549 1548 1548 1547 1546 1545 1543 1542 1540 1538 1537 1537 1536 1536 1536 1536 1536 1536 1535 1535 1535 1535 1534 1534 1533 1532 1532 1531
1523 1526 1529 1531 1533 1536 1538 1540 1542 1543 1544 1545 1546 1547 1547 1547 1547 1547 1546 1545 1544 1543 1541 1540 1538 1537 1537 1536 1535 1535 1536 1536 1536 1536 1535 1535 1535 1535 1535 1535 1534 1534 1533 1532
1521 1524 1526 1529 1531 1533 1535 1537 1539 1541 1542 1543 1544 1545 1545 1545 1545 1545 1544 1543 1542 1541 1539 1538 1537 1536 1536 1535 1534 1534 1535 1535 1535 1535 1535 1535 1535 1535 1535 1535 1535 1534 1534 1533
1519 1521 1524 1526 1528 1531 1533 1535 1536 1538 1540 1541 1541 1542 1543 1543 1543 1542 1542 1541 1540 1538 1537 1536 1535 1534 1534 1533 1533 1533 1533 1534 1534 1534 1534 1534 1535 1535 1535 1535 1535 1535 1534 1534
1517 1519 1521 1523 1526 1528 1530 1532 1534 1535 1537 1538 1538 1539 1540 1540 1540 1540 1539 1539 1537 1536 1535 1534 1533 1532 1532 1531 1531 1531 1531 1532 1533 1533 1533 1533 1534 1534 1534 1534 1534 1534 1534 1533
1515 1517 1518 1520 1523 1525 1527 1529 1531 1532 1533 1534 1535 1536 1537 1537 1537 1537 1536 1536 1535 1534 1533 1532 1531 1530 1529 1529 1529 1529 1529 1530 1530 1531 1531 1531 1532 1532 1532 1533 1533 1533 1533 1532
1513 1514 1516 1518 1520 1522 1523 1525 1527 1529 1530 1531 1532 1533 1533 1534 1533 1534 1534 1533 1532 1531 1530 1529 1528 1527 1527 1527 1527 1527 1527 1528 1528 1528 1529 1529 1530 1530 1530 1531 1531 1531 1531 1531
1511 1512 1514 1515 1516 1518 1520 1522 1523 1525 1526 1527 1528 1529 1530 1530 1530 1530 1530 1530 1529 1528 1527 1526 1526 1525 1524 1524 1524 1525 1525 1525 1525 1525 1526 1526 1527 1527 1528 1528 1528 1528 1528 1528
1510 1510 1510 1512 1513 1515 1516 1518 1519 1520 1521 1522 1523 1525 1526 1526 1526 1526 1526 1526 1526 1525 1524 1523 1523 1522 1522 1522 1522 1522 1522 1522 1522 1522 1523 1523 1523 1524 1524 1525 1525 1525 1526 1526
1507 1507 1508 1508 1509 1510 1512 1513 1515 1516 1517 1518 1519 1520 1521 1522 1522 1522 1522 1522 1522 1522 1521 1521 1520 1520 1519 1519 1518 1518 1519 1519 1519 1519 1519 1519 1520 1520 1521 1521 1522 1522 1522 1523